Weather History for Missoula, MT

Change the Weather History Date:

Wednesday, May 29, 2013

  Actual Average Record
Temperature  
Mean Temperature 57 °F 57 °F  
Max Temperature 71 °F 71 °F 95 °F (1936)
Min Temperature 43 °F 43 °F 27 °F (1951)
Degree Days  
Heating Degree Days 8 8  
Month to date heating degree days 282 343  
Since 1 July heating degree days 6761 7106  
Cooling Degree Days 0 0  
Month to date cooling degree days 4 0  
Year to date cooling degree days 4 0  
Growing Degree Days 7 (Base 50)    
Moisture  
Dew Point 42 °F    
Average Humidity 66    
Maximum Humidity 100    
Minimum Humidity 31    
Precipitation  
Precipitation T in 0.09 in 1.50 in (1917)
Month to date precipitation 1.36 1.84  
Year to date precipitation 4.10 5.61  
Snow  
Snow 0.00 in - - ()
Month to date snowfall T  
Year to date snowfall 27.4  
Since 1 July snowfall 48.5  
Snow Depth 0.00 in    
Sea Level Pressure  
Sea Level Pressure 29.75 in    
Wind  
Wind Speed 4 mph (West)    
Max Wind Speed 22 mph    
Max Gust Speed 28 mph    
Visibility 10 miles    
Events Rain    
T = Trace of Precipitation, MM = Missing Value Source: NWS Daily Summary

Daily Weather History Graph

Daily Weather History Graph

Search for Another Location

Airport:

Trip Planner

Search our weather history database for the weather conditions in past years. The results will help you decide how hot, cold, wet, or windy it might be!

Date:

Astronomy

May. 29, 2013 Rise Set
Actual Time 5:47 AM MDT 9:20 PM MDT
Civil Twilight 5:09 AM MDT 9:59 PM MDT
Nautical Twilight 4:18 AM MDT 10:50 PM MDT
Astronomical Twilight 3:10 AM MDT 11:58 PM MDT
Moon 12:36 AM MDT (5/29) 11:02 AM MDT (5/29)
Length of Visible Light 16h 49m
Length of Day
15h 33m
Waning Gibbous, 72% of the Moon is Illuminated
May 29
Waning Gibbous
May 31
Last Quarter
Jun 8
New
Jun 16
First Quarter
Jun 23
Full

Hourly Weather History & Observations

Time (MDT) Temp. Windchill Dew Point Humidity Pressure Visibility Wind Dir Wind Speed Gust Speed Precip Events Conditions
12:53 AM 51.1 °F - 48.9 °F 92% 29.84 in 10.0 mi Calm Calm - N/A   Overcast
1:53 AM 48.0 °F - 46.9 °F 96% 29.82 in 10.0 mi Calm Calm - N/A   Partly Cloudy
2:53 AM 45.0 °F 43.5 °F 44.1 °F 97% 29.81 in 10.0 mi North 3.5 mph - N/A   Clear
3:53 AM 45.0 °F - 43.0 °F 93% 29.79 in 10.0 mi Calm Calm - N/A   Partly Cloudy
4:00 AM 44.6 °F 41.4 °F 42.8 °F 93% 29.80 in 10.0 mi WSW 5.8 mph - N/A   Scattered Clouds
4:08 AM 44.6 °F 41.4 °F 42.8 °F 93% 29.80 in 10.0 mi West 5.8 mph - N/A   Mostly Cloudy
4:49 AM 44.6 °F - 42.8 °F 93% 29.79 in 10.0 mi Calm Calm - N/A   Mostly Cloudy
4:53 AM 44.1 °F - 43.0 °F 96% 29.79 in 10.0 mi Calm Calm - N/A   Mostly Cloudy
5:32 AM 44.6 °F - 42.8 °F 93% 29.78 in 10.0 mi Calm Calm - N/A   Overcast
5:53 AM 44.1 °F - 42.1 °F 93% 29.78 in 10.0 mi Calm Calm - N/A   Overcast
6:53 AM 44.1 °F 42.5 °F 42.1 °F 93% 29.77 in 10.0 mi North 3.5 mph - N/A   Mostly Cloudy
7:13 AM 44.6 °F - 42.8 °F 93% 29.78 in 10.0 mi Calm Calm - N/A   Overcast
7:53 AM 46.9 °F - 44.1 °F 90% 29.78 in 10.0 mi West 3.5 mph - N/A   Overcast
8:11 AM 46.4 °F 45.2 °F 42.8 °F 87% 29.78 in 10.0 mi WSW 3.5 mph - N/A   Overcast
8:18 AM 46.4 °F - 44.6 °F 93% 29.78 in 10.0 mi Calm Calm - N/A   Overcast
8:53 AM 48.9 °F - 44.1 °F 83% 29.78 in 10.0 mi Calm Calm - N/A   Scattered Clouds
9:53 AM 52.0 °F - 45.0 °F 77% 29.75 in 10.0 mi Calm Calm - N/A   Clear
10:53 AM 55.0 °F - 45.0 °F 69% 29.73 in 10.0 mi Calm Calm - N/A   Clear
11:53 AM 60.1 °F - 44.1 °F 55% 29.70 in 10.0 mi South 5.8 mph - N/A   Clear
12:53 PM 63.0 °F - 39.9 °F 43% 29.68 in 10.0 mi Calm Calm - N/A   Clear
1:53 PM 64.9 °F - 37.9 °F 37% 29.66 in 10.0 mi Calm Calm - N/A   Clear
2:53 PM 66.9 °F - 37.9 °F 34% 29.64 in 10.0 mi Variable 3.5 mph - N/A   Clear
3:53 PM 68.0 °F - 39.9 °F 36% 29.62 in 10.0 mi West 4.6 mph - N/A   Clear
4:53 PM 70.0 °F - 37.0 °F 30% 29.62 in 10.0 mi East 4.6 mph - N/A   Clear
5:53 PM 68.0 °F - 39.0 °F 35% 29.62 in 10.0 mi West 10.4 mph - N/A   Partly Cloudy
6:53 PM 63.0 °F - 41.0 °F 45% 29.66 in 10.0 mi SW 15.0 mph - N/A   Overcast
7:53 PM 57.9 °F - 41.0 °F 53% 29.73 in 10.0 mi WNW 13.8 mph 21.9 mph N/A   Overcast
8:53 PM 57.0 °F - 39.0 °F 51% 29.78 in 10.0 mi West 16.1 mph 21.9 mph N/A   Overcast
9:53 PM 51.1 °F - 44.1 °F 77% 29.83 in 10.0 mi SW 6.9 mph - 0.00 in Rain Light Rain
10:53 PM 51.1 °F - 43.0 °F 74% 29.84 in 10.0 mi North 3.5 mph - 0.00 in   Mostly Cloudy
11:53 PM 50.0 °F - 43.0 °F 77% 29.85 in 10.0 mi North 5.8 mph - N/A   Partly Cloudy